owner,sensor,date,latitude,longitude,sea_surface_height_above_sea_level,qcFlag 
TCOON,ioos:station:TCOON:057:1,2017-02-01T00:18:00Z,28.4460,-96.3961,3.398,1111122 
TCOON,ioos:station:TCOON:057:1,2017-02-01T01:18:00Z,28.4460,-96.3961,3.421,1111122 
TCOON,ioos:station:TCOON:057:1,2017-02-01T02:18:00Z,28.4460,-96.3961,3.445,1111122 
TCOON,ioos:station:TCOON:057:1,2017-02-01T03:18:00Z,28.4460,-96.3961,3.46,1111122 
TCOON,ioos:station:TCOON:057:1,2017-02-01T04:18:00Z,28.4460,-96.3961,3.477,1111122 
TCOON,ioos:station:TCOON:057:1,2017-02-01T05:18:00Z,28.4460,-96.3961,3.485,1111122 
TCOON,ioos:station:TCOON:057:1,2017-02-01T06:18:00Z,28.4460,-96.3961,3.484,1111122 
TCOON,ioos:station:TCOON:057:1,2017-02-01T07:18:00Z,28.4460,-96.3961,3.49,1111122 
TCOON,ioos:station:TCOON:057:1,2017-02-01T08:18:00Z,28.4460,-96.3961,3.495,1111122 
TCOON,ioos:station:TCOON:057:1,2017-02-01T09:18:00Z,28.4460,-96.3961,3.513,1111122 
TCOON,ioos:station:TCOON:057:1,2017-02-01T10:18:00Z,28.4460,-96.3961,3.529,1111122 
TCOON,ioos:station:TCOON:057:1,2017-02-01T11:18:00Z,28.4460,-96.3961,3.532,1111122 
TCOON,ioos:station:TCOON:057:1,2017-02-01T12:18:00Z,28.4460,-96.3961,3.537,1111122 
TCOON,ioos:station:TCOON:057:1,2017-02-01T13:18:00Z,28.4460,-96.3961,3.534,1111122 
TCOON,ioos:station:TCOON:057:1,2017-02-01T14:18:00Z,28.4460,-96.3961,3.523,1111122 
TCOON,ioos:station:TCOON:057:1,2017-02-01T15:18:00Z,28.4460,-96.3961,3.505,1111122 
TCOON,ioos:station:TCOON:057:1,2017-02-01T16:18:00Z,28.4460,-96.3961,3.492,1111122 
TCOON,ioos:station:TCOON:057:1,2017-02-01T17:18:00Z,28.4460,-96.3961,3.465,1111122 
TCOON,ioos:station:TCOON:057:1,2017-02-01T18:18:00Z,28.4460,-96.3961,3.446,1111122 
TCOON,ioos:station:TCOON:057:1,2017-02-01T19:18:00Z,28.4460,-96.3961,3.436,1111122 
TCOON,ioos:station:TCOON:057:1,2017-02-01T20:18:00Z,28.4460,-96.3961,3.437,1111122 
TCOON,ioos:station:TCOON:057:1,2017-02-01T21:18:00Z,28.4460,-96.3961,3.455,1111122 
TCOON,ioos:station:TCOON:057:1,2017-02-01T22:18:00Z,28.4460,-96.3961,3.468,1111122 
TCOON,ioos:station:TCOON:057:1,2017-02-01T23:18:00Z,28.4460,-96.3961,3.495,1111122 
TCOON,ioos:station:TCOON:057:1,2017-02-02T00:18:00Z,28.4460,-96.3961,3.503,1111122 
TCOON,ioos:station:TCOON:057:1,2017-02-02T01:18:00Z,28.4460,-96.3961,3.536,1111122 
TCOON,ioos:station:TCOON:057:1,2017-02-02T02:18:00Z,28.4460,-96.3961,3.555,1111122 
TCOON,ioos:station:TCOON:057:1,2017-02-02T03:18:00Z,28.4460,-96.3961,3.56,1111122 
TCOON,ioos:station:TCOON:057:1,2017-02-02T04:18:00Z,28.4460,-96.3961,3.561,1111122 
TCOON,ioos:station:TCOON:057:1,2017-02-02T05:18:00Z,28.4460,-96.3961,3.559,1111122 
TCOON,ioos:station:TCOON:057:1,2017-02-02T06:18:00Z,28.4460,-96.3961,3.54,1111122 
TCOON,ioos:station:TCOON:057:1,2017-02-02T07:18:00Z,28.4460,-96.3961,3.532,1111122 
TCOON,ioos:station:TCOON:057:1,2017-02-02T08:18:00Z,28.4460,-96.3961,3.522,1111122 
TCOON,ioos:station:TCOON:057:1,2017-02-02T09:18:00Z,28.4460,-96.3961,3.526,1111122 
TCOON,ioos:station:TCOON:057:1,2017-02-02T10:18:00Z,28.4460,-96.3961,3.521,1111122 
TCOON,ioos:station:TCOON:057:1,2017-02-02T11:18:00Z,28.4460,-96.3961,3.515,1111122 
TCOON,ioos:station:TCOON:057:1,2017-02-02T12:18:00Z,28.4460,-96.3961,3.516,1111122 
TCOON,ioos:station:TCOON:057:1,2017-02-02T13:18:00Z,28.4460,-96.3961,3.524,1111122 
TCOON,ioos:station:TCOON:057:1,2017-02-02T14:18:00Z,28.4460,-96.3961,3.534,1111122 
TCOON,ioos:station:TCOON:057:1,2017-02-02T15:18:00Z,28.4460,-96.3961,3.519,1111122 
TCOON,ioos:station:TCOON:057:1,2017-02-02T16:18:00Z,28.4460,-96.3961,3.521,1111122 
TCOON,ioos:station:TCOON:057:1,2017-02-02T17:18:00Z,28.4460,-96.3961,3.51,1111122 
TCOON,ioos:station:TCOON:057:1,2017-02-02T18:18:00Z,28.4460,-96.3961,3.49,1111122 
TCOON,ioos:station:TCOON:057:1,2017-02-02T19:18:00Z,28.4460,-96.3961,3.523,1111122 
TCOON,ioos:station:TCOON:057:1,2017-02-02T20:18:00Z,28.4460,-96.3961,3.504,1111122 
TCOON,ioos:station:TCOON:057:1,2017-02-02T21:18:00Z,28.4460,-96.3961,3.493,1111122 
TCOON,ioos:station:TCOON:057:1,2017-02-02T22:18:00Z,28.4460,-96.3961,3.493,1111122 
TCOON,ioos:station:TCOON:057:1,2017-02-02T23:18:00Z,28.4460,-96.3961,3.514,1111122 
TCOON,ioos:station:TCOON:057:1,2017-02-03T00:18:00Z,28.4460,-96.3961,3.531,1111122 
TCOON,ioos:station:TCOON:057:1,2017-02-03T01:18:00Z,28.4460,-96.3961,3.527,1111122 
TCOON,ioos:station:TCOON:057:1,2017-02-03T02:18:00Z,28.4460,-96.3961,3.564,1111122 
TCOON,ioos:station:TCOON:057:1,2017-02-03T03:18:00Z,28.4460,-96.3961,3.547,1111122 
TCOON,ioos:station:TCOON:057:1,2017-02-03T04:18:00Z,28.4460,-96.3961,3.501,1111122 
TCOON,ioos:station:TCOON:057:1,2017-02-03T05:18:00Z,28.4460,-96.3961,3.495,1111122 
TCOON,ioos:station:TCOON:057:1,2017-02-03T06:18:00Z,28.4460,-96.3961,3.485,1111122 
TCOON,ioos:station:TCOON:057:1,2017-02-03T07:18:00Z,28.4460,-96.3961,3.458,1111122 
TCOON,ioos:station:TCOON:057:1,2017-02-03T08:18:00Z,28.4460,-96.3961,3.456,1111122 
TCOON,ioos:station:TCOON:057:1,2017-02-03T09:18:00Z,28.4460,-96.3961,3.434,1111122 
TCOON,ioos:station:TCOON:057:1,2017-02-03T10:18:00Z,28.4460,-96.3961,3.463,1111122 
TCOON,ioos:station:TCOON:057:1,2017-02-03T11:18:00Z,28.4460,-96.3961,3.458,1111122 
TCOON,ioos:station:TCOON:057:1,2017-02-03T12:18:00Z,28.4460,-96.3961,3.486,1111122 
TCOON,ioos:station:TCOON:057:1,2017-02-03T13:18:00Z,28.4460,-96.3961,3.494,1111122 
TCOON,ioos:station:TCOON:057:1,2017-02-03T14:18:00Z,28.4460,-96.3961,3.531,1111122 
TCOON,ioos:station:TCOON:057:1,2017-02-03T15:18:00Z,28.4460,-96.3961,3.55,1111122 
TCOON,ioos:station:TCOON:057:1,2017-02-03T16:18:00Z,28.4460,-96.3961,3.571,1111122 
TCOON,ioos:station:TCOON:057:1,2017-02-03T17:18:00Z,28.4460,-96.3961,3.575,1111122 
TCOON,ioos:station:TCOON:057:1,2017-02-03T18:18:00Z,28.4460,-96.3961,3.589,1111122 
TCOON,ioos:station:TCOON:057:1,2017-02-03T19:18:00Z,28.4460,-96.3961,3.585,1111122 
TCOON,ioos:station:TCOON:057:1,2017-02-03T20:18:00Z,28.4460,-96.3961,3.598,1111122 
TCOON,ioos:station:TCOON:057:1,2017-02-03T21:18:00Z,28.4460,-96.3961,3.62,1111122 
TCOON,ioos:station:TCOON:057:1,2017-02-03T22:18:00Z,28.4460,-96.3961,3.621,1111122 
TCOON,ioos:station:TCOON:057:1,2017-02-03T23:30:00Z,28.4460,-96.3961,3.624,1111122 
TCOON,ioos:station:TCOON:057:1,2017-02-04T00:18:00Z,28.4460,-96.3961,3.638,1111122 
TCOON,ioos:station:TCOON:057:1,2017-02-04T01:18:00Z,28.4460,-96.3961,3.646,1111122 
TCOON,ioos:station:TCOON:057:1,2017-02-04T02:18:00Z,28.4460,-96.3961,3.66,1111122 
TCOON,ioos:station:TCOON:057:1,2017-02-04T03:18:00Z,28.4460,-96.3961,3.648,1111122 
TCOON,ioos:station:TCOON:057:1,2017-02-04T04:18:00Z,28.4460,-96.3961,3.634,1111122 
TCOON,ioos:station:TCOON:057:1,2017-02-04T05:18:00Z,28.4460,-96.3961,3.634,1111122 
TCOON,ioos:station:TCOON:057:1,2017-02-04T06:18:00Z,28.4460,-96.3961,3.618,1111122 
TCOON,ioos:station:TCOON:057:1,2017-02-04T07:18:00Z,28.4460,-96.3961,3.603,1111122 
TCOON,ioos:station:TCOON:057:1,2017-02-04T08:18:00Z,28.4460,-96.3961,3.564,1111122 
TCOON,ioos:station:TCOON:057:1,2017-02-04T09:18:00Z,28.4460,-96.3961,3.543,1111122 
TCOON,ioos:station:TCOON:057:1,2017-02-04T10:18:00Z,28.4460,-96.3961,3.508,1111122 
TCOON,ioos:station:TCOON:057:1,2017-02-04T11:18:00Z,28.4460,-96.3961,3.505,1111122 
TCOON,ioos:station:TCOON:057:1,2017-02-04T12:18:00Z,28.4460,-96.3961,3.532,1111122 
TCOON,ioos:station:TCOON:057:1,2017-02-04T13:18:00Z,28.4460,-96.3961,3.566,1111122 
TCOON,ioos:station:TCOON:057:1,2017-02-04T14:18:00Z,28.4460,-96.3961,3.579,1111122 
TCOON,ioos:station:TCOON:057:1,2017-02-04T15:18:00Z,28.4460,-96.3961,3.601,1111122 
TCOON,ioos:station:TCOON:057:1,2017-02-04T16:18:00Z,28.4460,-96.3961,3.614,1111122 
TCOON,ioos:station:TCOON:057:1,2017-02-04T17:18:00Z,28.4460,-96.3961,3.645,1111122 
TCOON,ioos:station:TCOON:057:1,2017-02-04T18:18:00Z,28.4460,-96.3961,3.677,1111122 
TCOON,ioos:station:TCOON:057:1,2017-02-04T19:18:00Z,28.4460,-96.3961,3.702,1111122 
TCOON,ioos:station:TCOON:057:1,2017-02-04T20:18:00Z,28.4460,-96.3961,3.725,1111122 
TCOON,ioos:station:TCOON:057:1,2017-02-04T21:18:00Z,28.4460,-96.3961,3.727,1111122 
TCOON,ioos:station:TCOON:057:1,2017-02-04T22:18:00Z,28.4460,-96.3961,3.736,1111122 
TCOON,ioos:station:TCOON:057:1,2017-02-04T23:18:00Z,28.4460,-96.3961,3.74,1111122 
TCOON,ioos:station:TCOON:057:1,2017-02-05T00:18:00Z,28.4460,-96.3961,3.73,1111122 
TCOON,ioos:station:TCOON:057:1,2017-02-05T01:18:00Z,28.4460,-96.3961,3.742,1111122 
TCOON,ioos:station:TCOON:057:1,2017-02-05T02:18:00Z,28.4460,-96.3961,3.759,1111122 
TCOON,ioos:station:TCOON:057:1,2017-02-05T03:18:00Z,28.4460,-96.3961,3.751,1111122 
TCOON,ioos:station:TCOON:057:1,2017-02-05T04:18:00Z,28.4460,-96.3961,3.755,1111122 
TCOON,ioos:station:TCOON:057:1,2017-02-05T05:18:00Z,28.4460,-96.3961,3.73,1111122 
TCOON,ioos:station:TCOON:057:1,2017-02-05T06:18:00Z,28.4460,-96.3961,3.701,1111122 
TCOON,ioos:station:TCOON:057:1,2017-02-05T07:18:00Z,28.4460,-96.3961,3.681,1111122 
TCOON,ioos:station:TCOON:057:1,2017-02-05T08:18:00Z,28.4460,-96.3961,3.663,1111122 
TCOON,ioos:station:TCOON:057:1,2017-02-05T09:18:00Z,28.4460,-96.3961,3.639,1111122 
TCOON,ioos:station:TCOON:057:1,2017-02-05T10:18:00Z,28.4460,-96.3961,3.617,1111122 
TCOON,ioos:station:TCOON:057:1,2017-02-05T11:18:00Z,28.4460,-96.3961,3.597,1111122 
TCOON,ioos:station:TCOON:057:1,2017-02-05T12:18:00Z,28.4460,-96.3961,3.581,1111122 
TCOON,ioos:station:TCOON:057:1,2017-02-05T13:18:00Z,28.4460,-96.3961,3.571,1111122 
TCOON,ioos:station:TCOON:057:1,2017-02-05T14:18:00Z,28.4460,-96.3961,3.592,1111122 
TCOON,ioos:station:TCOON:057:1,2017-02-05T15:18:00Z,28.4460,-96.3961,3.594,1111122 
TCOON,ioos:station:TCOON:057:1,2017-02-05T16:18:00Z,28.4460,-96.3961,3.616,1111122 
TCOON,ioos:station:TCOON:057:1,2017-02-05T17:18:00Z,28.4460,-96.3961,3.632,1111122 
TCOON,ioos:station:TCOON:057:1,2017-02-05T18:18:00Z,28.4460,-96.3961,3.652,1111122 
TCOON,ioos:station:TCOON:057:1,2017-02-05T19:18:00Z,28.4460,-96.3961,3.677,1111122 
TCOON,ioos:station:TCOON:057:1,2017-02-05T20:18:00Z,28.4460,-96.3961,3.704,1111122 
TCOON,ioos:station:TCOON:057:1,2017-02-05T21:18:00Z,28.4460,-96.3961,3.717,1111122 
TCOON,ioos:station:TCOON:057:1,2017-02-05T22:18:00Z,28.4460,-96.3961,3.734,1111122 
TCOON,ioos:station:TCOON:057:1,2017-02-05T23:18:00Z,28.4460,-96.3961,3.736,1111122 
TCOON,ioos:station:TCOON:057:1,2017-02-06T00:18:00Z,28.4460,-96.3961,3.728,1111122 
TCOON,ioos:station:TCOON:057:1,2017-02-06T01:18:00Z,28.4460,-96.3961,3.717,1111122 
TCOON,ioos:station:TCOON:057:1,2017-02-06T02:18:00Z,28.4460,-96.3961,3.706,1111122 
TCOON,ioos:station:TCOON:057:1,2017-02-06T03:18:00Z,28.4460,-96.3961,3.693,1111122 
TCOON,ioos:station:TCOON:057:1,2017-02-06T04:18:00Z,28.4460,-96.3961,3.673,1111122 
TCOON,ioos:station:TCOON:057:1,2017-02-06T05:18:00Z,28.4460,-96.3961,3.65,1111122 
TCOON,ioos:station:TCOON:057:1,2017-02-06T06:18:00Z,28.4460,-96.3961,3.612,1111122 
TCOON,ioos:station:TCOON:057:1,2017-02-06T07:18:00Z,28.4460,-96.3961,3.582,1111122 
TCOON,ioos:station:TCOON:057:1,2017-02-06T08:18:00Z,28.4460,-96.3961,3.56,1111122 
TCOON,ioos:station:TCOON:057:1,2017-02-06T09:18:00Z,28.4460,-96.3961,3.529,1111122 
TCOON,ioos:station:TCOON:057:1,2017-02-06T10:18:00Z,28.4460,-96.3961,3.501,1111122 
TCOON,ioos:station:TCOON:057:1,2017-02-06T11:18:00Z,28.4460,-96.3961,3.469,1111122 
TCOON,ioos:station:TCOON:057:1,2017-02-06T12:18:00Z,28.4460,-96.3961,3.448,1111122 
TCOON,ioos:station:TCOON:057:1,2017-02-06T13:18:00Z,28.4460,-96.3961,3.424,1111122 
TCOON,ioos:station:TCOON:057:1,2017-02-06T14:18:00Z,28.4460,-96.3961,3.437,1111122 
TCOON,ioos:station:TCOON:057:1,2017-02-06T15:18:00Z,28.4460,-96.3961,3.441,1111122 
TCOON,ioos:station:TCOON:057:1,2017-02-06T16:18:00Z,28.4460,-96.3961,3.466,1111122 
TCOON,ioos:station:TCOON:057:1,2017-02-06T17:18:00Z,28.4460,-96.3961,3.482,1111122 
TCOON,ioos:station:TCOON:057:1,2017-02-06T18:18:00Z,28.4460,-96.3961,3.504,1111122 
TCOON,ioos:station:TCOON:057:1,2017-02-06T19:18:00Z,28.4460,-96.3961,3.546,1111122 
TCOON,ioos:station:TCOON:057:1,2017-02-06T20:18:00Z,28.4460,-96.3961,3.582,1111122 
TCOON,ioos:station:TCOON:057:1,2017-02-06T21:18:00Z,28.4460,-96.3961,3.626,1111122 
TCOON,ioos:station:TCOON:057:1,2017-02-06T22:18:00Z,28.4460,-96.3961,3.658,1111122 
TCOON,ioos:station:TCOON:057:1,2017-02-07T00:12:00Z,28.4460,-96.3961,3.701,1111122 
TCOON,ioos:station:TCOON:057:1,2017-02-07T02:12:00Z,28.4460,-96.3961,3.718,1111122 
TCOON,ioos:station:TCOON:057:1,2017-02-07T03:18:00Z,28.4460,-96.3961,3.72,1111122 
TCOON,ioos:station:TCOON:057:1,2017-02-07T04:18:00Z,28.4460,-96.3961,3.712,1111122 
TCOON,ioos:station:TCOON:057:1,2017-02-07T05:18:00Z,28.4460,-96.3961,3.701,1111122 
TCOON,ioos:station:TCOON:057:1,2017-02-07T06:18:00Z,28.4460,-96.3961,3.673,1111122 
TCOON,ioos:station:TCOON:057:1,2017-02-07T07:18:00Z,28.4460,-96.3961,3.636,1111122 
TCOON,ioos:station:TCOON:057:1,2017-02-07T08:18:00Z,28.4460,-96.3961,3.611,1111122 
TCOON,ioos:station:TCOON:057:1,2017-02-07T09:18:00Z,28.4460,-96.3961,3.573,1111122 
TCOON,ioos:station:TCOON:057:1,2017-02-07T10:18:00Z,28.4460,-96.3961,3.53,1111122 
TCOON,ioos:station:TCOON:057:1,2017-02-07T11:18:00Z,28.4460,-96.3961,3.503,1111122 
TCOON,ioos:station:TCOON:057:1,2017-02-07T12:18:00Z,28.4460,-96.3961,3.471,1111122 
TCOON,ioos:station:TCOON:057:1,2017-02-07T13:18:00Z,28.4460,-96.3961,3.441,1111122 
TCOON,ioos:station:TCOON:057:1,2017-02-07T14:18:00Z,28.4460,-96.3961,3.42,1111122 
TCOON,ioos:station:TCOON:057:1,2017-02-07T15:18:00Z,28.4460,-96.3961,3.415,1111122 
TCOON,ioos:station:TCOON:057:1,2017-02-07T16:18:00Z,28.4460,-96.3961,3.423,1111122 
TCOON,ioos:station:TCOON:057:1,2017-02-07T17:18:00Z,28.4460,-96.3961,3.44,1111122 
TCOON,ioos:station:TCOON:057:1,2017-02-07T18:18:00Z,28.4460,-96.3961,3.46,1111122 
TCOON,ioos:station:TCOON:057:1,2017-02-07T19:18:00Z,28.4460,-96.3961,3.476,1111122 
TCOON,ioos:station:TCOON:057:1,2017-02-07T20:18:00Z,28.4460,-96.3961,3.528,1111122 
TCOON,ioos:station:TCOON:057:1,2017-02-07T21:18:00Z,28.4460,-96.3961,3.544,1111122 
TCOON,ioos:station:TCOON:057:1,2017-02-07T22:24:00Z,28.4460,-96.3961,3.576,1111122 
TCOON,ioos:station:TCOON:057:1,2017-02-07T23:24:00Z,28.4460,-96.3961,3.601,1111122 
TCOON,ioos:station:TCOON:057:1,2017-02-08T00:24:00Z,28.4460,-96.3961,3.619,1111122 
TCOON,ioos:station:TCOON:057:1,2017-02-08T01:24:00Z,28.4460,-96.3961,3.625,1111122 
TCOON,ioos:station:TCOON:057:1,2017-02-08T02:24:00Z,28.4460,-96.3961,3.638,1111122 
TCOON,ioos:station:TCOON:057:1,2017-02-08T03:24:00Z,28.4460,-96.3961,3.652,1111122 
TCOON,ioos:station:TCOON:057:1,2017-02-08T04:24:00Z,28.4460,-96.3961,3.641,1111122 
TCOON,ioos:station:TCOON:057:1,2017-02-08T05:24:00Z,28.4460,-96.3961,3.646,1111122 
TCOON,ioos:station:TCOON:057:1,2017-02-08T06:24:00Z,28.4460,-96.3961,3.64,1111122 
TCOON,ioos:station:TCOON:057:1,2017-02-08T07:24:00Z,28.4460,-96.3961,3.621,1111122 
TCOON,ioos:station:TCOON:057:1,2017-02-08T08:24:00Z,28.4460,-96.3961,3.58,1111122 
TCOON,ioos:station:TCOON:057:1,2017-02-08T09:24:00Z,28.4460,-96.3961,3.545,1111122 
TCOON,ioos:station:TCOON:057:1,2017-02-08T10:24:00Z,28.4460,-96.3961,3.507,1111122 
TCOON,ioos:station:TCOON:057:1,2017-02-08T11:24:00Z,28.4460,-96.3961,3.475,1111122 
TCOON,ioos:station:TCOON:057:1,2017-02-08T12:24:00Z,28.4460,-96.3961,3.465,1111122 
TCOON,ioos:station:TCOON:057:1,2017-02-08T13:24:00Z,28.4460,-96.3961,3.452,1111122 
TCOON,ioos:station:TCOON:057:1,2017-02-08T14:24:00Z,28.4460,-96.3961,3.421,1111122 
TCOON,ioos:station:TCOON:057:1,2017-02-08T15:24:00Z,28.4460,-96.3961,3.42,1111122 
TCOON,ioos:station:TCOON:057:1,2017-02-08T16:24:00Z,28.4460,-96.3961,3.407,1111122 
TCOON,ioos:station:TCOON:057:1,2017-02-08T17:24:00Z,28.4460,-96.3961,3.43,1111122 
TCOON,ioos:station:TCOON:057:1,2017-02-08T18:18:00Z,28.4460,-96.3961,3.462,1111122 
TCOON,ioos:station:TCOON:057:1,2017-02-08T19:18:00Z,28.4460,-96.3961,3.492,1111122 
TCOON,ioos:station:TCOON:057:1,2017-02-08T20:18:00Z,28.4460,-96.3961,3.515,1111122 
TCOON,ioos:station:TCOON:057:1,2017-02-08T21:18:00Z,28.4460,-96.3961,3.543,1111122 
TCOON,ioos:station:TCOON:057:1,2017-02-08T22:18:00Z,28.4460,-96.3961,3.579,1111122 
TCOON,ioos:station:TCOON:057:1,2017-02-08T23:18:00Z,28.4460,-96.3961,3.59,1111122 
TCOON,ioos:station:TCOON:057:1,2017-02-09T00:18:00Z,28.4460,-96.3961,3.622,1111122 
TCOON,ioos:station:TCOON:057:1,2017-02-09T01:18:00Z,28.4460,-96.3961,3.614,1111122 
TCOON,ioos:station:TCOON:057:1,2017-02-09T02:18:00Z,28.4460,-96.3961,3.637,1111122 
TCOON,ioos:station:TCOON:057:1,2017-02-09T03:18:00Z,28.4460,-96.3961,3.61,1111122 
TCOON,ioos:station:TCOON:057:1,2017-02-09T04:18:00Z,28.4460,-96.3961,3.664,1111122 
TCOON,ioos:station:TCOON:057:1,2017-02-09T05:18:00Z,28.4460,-96.3961,3.648,1111122 
TCOON,ioos:station:TCOON:057:1,2017-02-09T06:18:00Z,28.4460,-96.3961,3.622,1111122 
TCOON,ioos:station:TCOON:057:1,2017-02-09T07:18:00Z,28.4460,-96.3961,3.583,1111122 
TCOON,ioos:station:TCOON:057:1,2017-02-09T08:18:00Z,28.4460,-96.3961,3.538,1111122 
TCOON,ioos:station:TCOON:057:1,2017-02-09T09:18:00Z,28.4460,-96.3961,3.507,1111122 
TCOON,ioos:station:TCOON:057:1,2017-02-09T10:18:00Z,28.4460,-96.3961,3.471,1111122 
TCOON,ioos:station:TCOON:057:1,2017-02-09T11:18:00Z,28.4460,-96.3961,3.43,1111122 
TCOON,ioos:station:TCOON:057:1,2017-02-09T12:18:00Z,28.4460,-96.3961,3.374,1111122 
TCOON,ioos:station:TCOON:057:1,2017-02-09T13:18:00Z,28.4460,-96.3961,3.32,1111122 
TCOON,ioos:station:TCOON:057:1,2017-02-09T14:18:00Z,28.4460,-96.3961,3.284,1111122 
TCOON,ioos:station:TCOON:057:1,2017-02-09T19:24:00Z,28.4460,-96.3961,3.338,1111122 
TCOON,ioos:station:TCOON:057:1,2017-02-09T20:24:00Z,28.4460,-96.3961,3.391,1111122 
TCOON,ioos:station:TCOON:057:1,2017-02-09T21:24:00Z,28.4460,-96.3961,3.447,1111122 
TCOON,ioos:station:TCOON:057:1,2017-02-09T22:30:00Z,28.4460,-96.3961,3.48,1111122 
TCOON,ioos:station:TCOON:057:1,2017-02-10T01:18:00Z,28.4460,-96.3961,3.579,1111122 
TCOON,ioos:station:TCOON:057:1,2017-02-10T02:18:00Z,28.4460,-96.3961,3.61,1111122 
TCOON,ioos:station:TCOON:057:1,2017-02-10T03:30:00Z,28.4460,-96.3961,3.629,1111122 
TCOON,ioos:station:TCOON:057:1,2017-02-10T04:24:00Z,28.4460,-96.3961,3.641,1111122 
TCOON,ioos:station:TCOON:057:1,2017-02-10T05:24:00Z,28.4460,-96.3961,3.656,1111122 
TCOON,ioos:station:TCOON:057:1,2017-02-10T06:30:00Z,28.4460,-96.3961,3.688,1111122 
TCOON,ioos:station:TCOON:057:1,2017-02-10T07:42:00Z,28.4460,-96.3961,3.703,1111122 
TCOON,ioos:station:TCOON:057:1,2017-02-10T08:36:00Z,28.4460,-96.3961,3.708,1111122 
TCOON,ioos:station:TCOON:057:1,2017-02-10T09:30:00Z,28.4460,-96.3961,3.703,1111122 
TCOON,ioos:station:TCOON:057:1,2017-02-10T10:18:00Z,28.4460,-96.3961,3.678,1111122 
TCOON,ioos:station:TCOON:057:1,2017-02-10T11:18:00Z,28.4460,-96.3961,3.647,1111122 
TCOON,ioos:station:TCOON:057:1,2017-02-10T12:18:00Z,28.4460,-96.3961,3.625,1111122 
TCOON,ioos:station:TCOON:057:1,2017-02-10T13:18:00Z,28.4460,-96.3961,3.599,1111122 
TCOON,ioos:station:TCOON:057:1,2017-02-10T14:18:00Z,28.4460,-96.3961,3.57,1111122 
TCOON,ioos:station:TCOON:057:1,2017-02-10T15:18:00Z,28.4460,-96.3961,3.545,1111122 
TCOON,ioos:station:TCOON:057:1,2017-02-10T16:18:00Z,28.4460,-96.3961,3.522,1111122 
TCOON,ioos:station:TCOON:057:1,2017-02-10T17:18:00Z,28.4460,-96.3961,3.505,1111122 
TCOON,ioos:station:TCOON:057:1,2017-02-10T18:18:00Z,28.4460,-96.3961,3.513,1111122 
TCOON,ioos:station:TCOON:057:1,2017-02-10T19:18:00Z,28.4460,-96.3961,3.541,1111122 
TCOON,ioos:station:TCOON:057:1,2017-02-10T20:18:00Z,28.4460,-96.3961,3.568,1111122 
TCOON,ioos:station:TCOON:057:1,2017-02-10T21:18:00Z,28.4460,-96.3961,3.589,1111122 
TCOON,ioos:station:TCOON:057:1,2017-02-10T22:18:00Z,28.4460,-96.3961,3.622,1111122 
TCOON,ioos:station:TCOON:057:1,2017-02-10T23:18:00Z,28.4460,-96.3961,3.667,1111122 
TCOON,ioos:station:TCOON:057:1,2017-02-11T00:18:00Z,28.4460,-96.3961,3.687,1111122 
TCOON,ioos:station:TCOON:057:1,2017-02-11T01:18:00Z,28.4460,-96.3961,3.711,1111122 
TCOON,ioos:station:TCOON:057:1,2017-02-11T02:18:00Z,28.4460,-96.3961,3.726,1111122 
TCOON,ioos:station:TCOON:057:1,2017-02-11T03:18:00Z,28.4460,-96.3961,3.737,1111122 
TCOON,ioos:station:TCOON:057:1,2017-02-11T04:18:00Z,28.4460,-96.3961,3.754,1111122 
TCOON,ioos:station:TCOON:057:1,2017-02-11T05:18:00Z,28.4460,-96.3961,3.756,1111122 
TCOON,ioos:station:TCOON:057:1,2017-02-11T06:18:00Z,28.4460,-96.3961,3.766,1111122 
TCOON,ioos:station:TCOON:057:1,2017-02-11T07:18:00Z,28.4460,-96.3961,3.782,1111122 
TCOON,ioos:station:TCOON:057:1,2017-02-11T08:18:00Z,28.4460,-96.3961,3.786,1111122 
TCOON,ioos:station:TCOON:057:1,2017-02-11T09:18:00Z,28.4460,-96.3961,3.777,1111122 
TCOON,ioos:station:TCOON:057:1,2017-02-11T10:18:00Z,28.4460,-96.3961,3.749,1111122 
TCOON,ioos:station:TCOON:057:1,2017-02-11T11:18:00Z,28.4460,-96.3961,3.724,1111122 
TCOON,ioos:station:TCOON:057:1,2017-02-11T12:18:00Z,28.4460,-96.3961,3.686,1111122 
TCOON,ioos:station:TCOON:057:1,2017-02-11T13:18:00Z,28.4460,-96.3961,3.645,1111122 
TCOON,ioos:station:TCOON:057:1,2017-02-11T14:18:00Z,28.4460,-96.3961,3.622,1111122 
TCOON,ioos:station:TCOON:057:1,2017-02-11T15:18:00Z,28.4460,-96.3961,3.58,1111122 
TCOON,ioos:station:TCOON:057:1,2017-02-11T16:18:00Z,28.4460,-96.3961,3.553,1111122 
TCOON,ioos:station:TCOON:057:1,2017-02-11T17:18:00Z,28.4460,-96.3961,3.501,1111122 
TCOON,ioos:station:TCOON:057:1,2017-02-11T18:18:00Z,28.4460,-96.3961,3.485,1111122 
TCOON,ioos:station:TCOON:057:1,2017-02-11T19:18:00Z,28.4460,-96.3961,3.476,1111122 
TCOON,ioos:station:TCOON:057:1,2017-02-11T20:18:00Z,28.4460,-96.3961,3.487,1111122 
TCOON,ioos:station:TCOON:057:1,2017-02-11T21:18:00Z,28.4460,-96.3961,3.514,1111122 
TCOON,ioos:station:TCOON:057:1,2017-02-11T22:18:00Z,28.4460,-96.3961,3.541,1111122 
TCOON,ioos:station:TCOON:057:1,2017-02-11T23:18:00Z,28.4460,-96.3961,3.572,1111122 
TCOON,ioos:station:TCOON:057:1,2017-02-12T00:18:00Z,28.4460,-96.3961,3.593,1111122 
TCOON,ioos:station:TCOON:057:1,2017-02-12T01:18:00Z,28.4460,-96.3961,3.618,1111122 
TCOON,ioos:station:TCOON:057:1,2017-02-12T02:18:00Z,28.4460,-96.3961,3.644,1111122 
TCOON,ioos:station:TCOON:057:1,2017-02-12T03:18:00Z,28.4460,-96.3961,3.654,1111122 
TCOON,ioos:station:TCOON:057:1,2017-02-12T04:18:00Z,28.4460,-96.3961,3.663,1111122 
TCOON,ioos:station:TCOON:057:1,2017-02-12T05:18:00Z,28.4460,-96.3961,3.658,1111122 
TCOON,ioos:station:TCOON:057:1,2017-02-12T06:18:00Z,28.4460,-96.3961,3.656,1111122 
TCOON,ioos:station:TCOON:057:1,2017-02-12T07:18:00Z,28.4460,-96.3961,3.651,1111122 
TCOON,ioos:station:TCOON:057:1,2017-02-12T08:18:00Z,28.4460,-96.3961,3.672,1111122 
TCOON,ioos:station:TCOON:057:1,2017-02-12T09:18:00Z,28.4460,-96.3961,3.667,1111122 
TCOON,ioos:station:TCOON:057:1,2017-02-12T10:18:00Z,28.4460,-96.3961,3.649,1111122 
TCOON,ioos:station:TCOON:057:1,2017-02-12T11:18:00Z,28.4460,-96.3961,3.624,1111122 
TCOON,ioos:station:TCOON:057:1,2017-02-12T12:18:00Z,28.4460,-96.3961,3.59,1111122 
TCOON,ioos:station:TCOON:057:1,2017-02-12T13:18:00Z,28.4460,-96.3961,3.564,1111122 
TCOON,ioos:station:TCOON:057:1,2017-02-12T14:12:00Z,28.4460,-96.3961,3.529,1111122 
TCOON,ioos:station:TCOON:057:1,2017-02-12T15:18:00Z,28.4460,-96.3961,3.496,1111122 
TCOON,ioos:station:TCOON:057:1,2017-02-12T16:18:00Z,28.4460,-96.3961,3.463,1111122 
TCOON,ioos:station:TCOON:057:1,2017-02-12T17:18:00Z,28.4460,-96.3961,3.423,1111122 
TCOON,ioos:station:TCOON:057:1,2017-02-12T18:18:00Z,28.4460,-96.3961,3.403,1111122 
TCOON,ioos:station:TCOON:057:1,2017-02-12T19:18:00Z,28.4460,-96.3961,3.398,1111122 
TCOON,ioos:station:TCOON:057:1,2017-02-12T20:18:00Z,28.4460,-96.3961,3.392,1111122 
TCOON,ioos:station:TCOON:057:1,2017-02-12T21:18:00Z,28.4460,-96.3961,3.401,1111122 
TCOON,ioos:station:TCOON:057:1,2017-02-12T22:18:00Z,28.4460,-96.3961,3.422,1111122 
TCOON,ioos:station:TCOON:057:1,2017-02-12T23:18:00Z,28.4460,-96.3961,3.444,1111122 
TCOON,ioos:station:TCOON:057:1,2017-02-13T00:18:00Z,28.4460,-96.3961,3.467,1111122 
TCOON,ioos:station:TCOON:057:1,2017-02-13T01:18:00Z,28.4460,-96.3961,3.478,1111122 
TCOON,ioos:station:TCOON:057:1,2017-02-13T02:18:00Z,28.4460,-96.3961,3.501,1111122 
TCOON,ioos:station:TCOON:057:1,2017-02-13T03:18:00Z,28.4460,-96.3961,3.513,1111122 
TCOON,ioos:station:TCOON:057:1,2017-02-13T04:18:00Z,28.4460,-96.3961,3.534,1111122 